Location: ?????????
(54.7630°N, 39.4991°E)
Time: 06:13:51
(UTC+00:00)

IKONOS-2 - Pass Details

Date: 14 April 2026
Orbit: 571 x 580 km, 98.1° (Epoch: 10 May)

Event Time Altitude Azimuth Distance (km) Brightness Sun altitude
Rises 19:37:38 0° 17° (NNE) 2,796 8.6 -22.0°
Reaches altitude 10° 19:39:48 10° 21° (NNE) 1,893 7.6 -22.1°
Enters shadow 19:43:39 61° 83° (E) 655 4.5 -22.4°
